Regional Weather Roundup
Issued by NWS Charleston, WV

Home | Current Version | Previous Version | Text Only | Print | Product List | Glossary Off
Versions: 1 2 3 4 5 6 7 8 9 10 11 12 13 14 15 16 17 18 19 20 21 22 23 24 25 26 27 28 29 30 31 32 33 34 35 36 37 38 39 40 41 42 43 44 45 46 47 48 49 50

588
ASUS41 KRLX 290910
RWRRLX
West Virginia Regional Weather Roundup
National Weather Service Charleston WV
500 AM EDT FRI APR 29 2016

Note: "fair" indicates few or no clouds below 12,000 feet with no
significant weather and/or obstructions to visibility.

WVZ003-291000-
Northern Panhandle of West Virginia

CITY           SKY/WX    TMP DP  RH WIND       PRES   REMARKS
WHEELING       FOG       47  45  93 CALM      29.94S VSB 1/4
$$

WVZ009-291000-
Northwest West Virginia

CITY           SKY/WX    TMP DP  RH WIND       PRES   REMARKS
PARKERSBURG    CLOUDY    54  52  93 N3        29.97R FOG
$$

WVZ006-291000-
Western West Virginia

CITY           SKY/WX    TMP DP  RH WIND       PRES   REMARKS
HUNTINGTON     FOG       59  58  96 S3        29.97R VSB 1/2
$$

WVZ015-291000-
West Central West Virginia

CITY           SKY/WX    TMP DP  RH WIND       PRES   REMARKS
CHARLESTON     CLOUDY    60  58  92 SW5       29.97R
$$

WVZ022-031-291000-
North Central West Virginia

CITY           SKY/WX    TMP DP  RH WIND       PRES   REMARKS
CLARKSBURG     FOG       56  56 100 CALM      29.93R VSB 1/2
MORGANTOWN     FOG       52  49  89 N5        29.94R VSB 1/4
$$

WVZ025-035-042-045-291000-
Southern West Virginia

CITY           SKY/WX    TMP DP  RH WIND       PRES   REMARKS
BECKLEY          N/A     56  51  84 W7        30.00R
LOGAN          NOT AVBL
BLUEFIELD        N/A     55  50  83 W8        30.03R
LEWISBURG        N/A     54  53  96 W6        29.98R
$$

WVZ047-291000-
Northern Mountains of West Virginia

CITY           SKY/WX    TMP DP  RH WIND       PRES   REMARKS
ELKINS         CLOUDY    55  53  93 N3        29.95R FOG
$$

WVZ052-291000-
Eastern Panhandle of West Virginia

CITY           SKY/WX    TMP DP  RH WIND       PRES   REMARKS
MARTINSBURG    CLOUDY    45  44  97 E3        30.00S FOG
PETERSBURG     CLOUDY    49  48  97 N6        29.98R FOG
$$




USA.gov is the U.S. government's official web portal to all federal, state and local government web resources and services.